Location: Unspecified
(0.0000°N, 0.0000°E)
Time: 11:09:42
(UTC+00:00)

HEATHSAT - Pass Details

Date: 18 June 2023
Orbit: 779 x 793 km, 98.8° (Epoch: 22 September)

Event Time Altitude Azimuth Distance (km) Brightness Sun altitude
Exits shadow 20:49:57 17° 344° (NNW) 1,870 10.0 -38.0°
Drops below altitude 10° 20:51:06 10° 345° (NNW) 2,320 10.5 -38.3°
Sets 20:53:25 0° 346° (NNW) 3,246 11.4 -38.8°
